This demonstration page uses our WeatherBlox Daily Observations layout. Learn more.

Left ArrowRight Arrow

34.02893, -84.19858

Hourly Observations for January 18, 2018

Temp ( °F °C ) Dew Point ( °F °C ) Humidity (%) Winds ( mph kmh ) Pressure ( in mb ) Visibility ( mi km ) Precip ( " mm )
12:53 am 00:53 Clear 15 -9.4 6 -14.4 67 67 NW 9 15 30.49 1033 10 16 0.00 0.00
1:53 am 01:53 Clear 15 -9.4 6 -14.4 67 67 NW 12 19 30.48 1032 10 16 0.00 0.00
2:53 am 02:53 Clear 14 -10 7 -13.9 73 73 WNW 9 15 30.48 1032 10 16 0.00 0.00
3:53 am 03:53 Clear 14 -10 7 -13.9 73 73 WNW 13 20 30.49 1032 10 16 0.00 0.00
4:53 am 04:53 Clear 14 -10 7 -13.9 73 73 NW 9 15 30.47 1032 10 16 0.00 0.00
5:53 am 05:53 Clear 14 -10 7 -13.9 73 73 WNW 10 17 30.48 1032 10 16 0.00 0.00
6:53 am 06:53 Clear 14 -10 7 -13.9 73 73 WNW 8 13 30.48 1032 10 16 0.00 0.00
7:53 am 07:53 Sunny 15 -9.4 7 -13.9 70 70 NW 10 17 30.49 1033 10 16 0.00 0.00
8:53 am 08:53 Sunny 17 -8.3 8 -13.3 68 68 NW 10 17 30.50 1033 10 16 0.00 0.00
9:53 am 09:53 Sunny 22 -5.6 9 -12.8 57 57 NW 9 15 30.50 1033 10 16 0.00 0.00
10:53 am 10:53 Sunny 27 -2.8 9 -12.8 46 46 NW 12 19 30.50 1033 10 16 0.00 0.00
11:53 am 11:53 Sunny 30 -1.1 10 -12.2 43 43 NW 10 17 30.49 1032 10 16 0.00 0.00
12:53 pm 12:53 Sunny 34 1.1 13 -10.6 42 42 NW 9 15 30.45 1031 10 16 0.00 0.00
1:53 pm 13:53 Sunny 37 2.8 13 -10.6 37 37 NW 9 15 30.42 1030 10 16 0.00 0.00
2:53 pm 14:53 Sunny 39 3.9 12 -11.1 33 33 NW 9 15 30.40 1030 10 16 0.00 0.00
3:53 pm 15:53 Sunny 39 3.9 13 -10.6 34 34 NW 10 17 30.39 1029 10 16 0.00 0.00
4:53 pm 16:53 Sunny 38 3.3 12 -11.1 34 34 W 7 11 30.39 1029 10 16 0.00 0.00
5:53 pm 17:53 Sunny 35 1.7 10 -12.2 35 35 W 9 15 30.39 1029 10 16 0.00 0.00
6:53 pm 18:53 Clear 34 1.1 9 -12.8 35 35 WNW 10 17 30.40 1029 10 16 0.00 0.00
7:53 pm 19:53 Clear 33 0.6 10 -12.2 38 38 WNW 9 15 30.40 1030 10 16 0.00 0.00
8:53 pm 20:53 Clear 32 0 10 -12.2 40 40 NW 8 13 30.39 1029 10 16 0.00 0.00
9:53 pm 21:53 Clear 31 -0.6 10 -12.2 42 42 WNW 7 11 30.38 1029 10 16 0.00 0.00
10:53 pm 22:53 Clear 29 -1.7 10 -12.2 45 45 WNW 5 7 30.37 1029 10 16 0.00 0.00
11:53 pm 23:53 Clear 29 -1.7 11 -11.7 47 47 W 6 9 30.37 1028 10 16 0.00 0.00

Powered by AerisWeather